THOR ABLESTAR DEB, 407

Orbit data source: Space-Track

THOR ABLESTAR DEB, 407 is space debris in LEO originally from a launch on Thu, 29 Jun 1961 UTC launched from the Air Force Eastern Test Range (AFETR). Debris objects in space refer to the collection of defunct objects orbiting the Earth. Examples of debris include non-operational satellites, rocket bodies, and fragments generated from explosions, collisions, or faulty payload assembly.

Loading next visibility...
Identifier
407, 1961-015EG
Orbit
LEO
Country
Flag of USUS
Related business
Manufacturer
Unknown
Mission
Spacecraft
Bus & Motor
Unknown
Mass
Unknown
Launch date (UTC)
1961-06-29 (64 years ago)
Launch vehicle
Unknown
Launch site
Air Force Eastern Test Range (AFETR)
Object type
Payload
Rocket body
Debris
Shape & HBR
Unknown
Radar Cross Section
Medium (>0.1 m² and <1 m²)

Expand to show TLE details & history
Last TLE update: 19 hours ago

TLE from 19 hours ago
0 THOR ABLESTAR DEB
1 00407U 61015EG  25259.33209675  .01371067  00000-0  12277-1 0  9997
2 00407  66.2798 145.5411 0021574 205.3224 154.6883 15.64863966292012
Epoch: 2025-09-16T07:58Z
TLE epoch observation values (Epoch: 2025-09-16T07:58:13.159Z)
Latitude
-0.00002°
Longitude
30.46234°
Altitude
389.008 km
Speed
7.67 km/s
True Right ascension
09h 42m 09s
True Declination
0° 00' 00"
Sunlit
Object was in daylight at epoch
Visualization orbit readout
Latitude
Unknown
Longitude
Unknown
Altitude
Unknown
Speed
Unknown
Apparent Right ascension
Unknown
Apparent Declination
Unknown
Sunlit
N/A
Visualization observer readout
Local Sidereal Time
19:42:59
Azimuth
Unknown
Elevation
Unknown
Doppler factor
Unknown
Orbital elements
Apogee altitude
386.519 km
Perigee altitude
357.394 km
Semi-major axis
6,750.093 km
Eccentricity
0.00216
Inclination
66.2798°
RAAN
145.5411°
Arg. of periapsis
205.3224°
True anomaly
154.79374°
Mean anomaly
154.6883°
Eccentric anomaly
154.74105°
Mean motion
3.91362 °/min
Orbital period
91.99 mins
BSTAR
0.012277
Loading maneuver chart data...
Computing Atmospheric mass density...

Documentation

Showing up to 5 results
|